ITASAT

Last updated on Sun Aug 09 2026 00:03:15 GMT+0000 (Coordinated Universal Time)

1 43786U 18099AE 26220.57736782 .00003252 00000+0 15543-3 0 9994 2 43786 97.3997 271.0534 0013042 162.0472 198.1226 15.19650340420861
UTC large
Height (km)
Speed (km/s)
/
Latitude / Longitude
Inclination (degrees)
Orbital Period (minutes)
Azimuth
Elevation
Range (km)
Doppler Factor

Next 0 passes for location: London (51.5072 / 0.1276)

No passes found over London.
ITASAT